Regional Weather Roundup
Issued by NWS

Home | Current Version | Previous Version | Graphics & Text | Print | Product List | Glossary On
Versions: 1 2 3 4 5 6 7 8 9 10 11 12 13 14 15 16 17 18 19 20 21 22 23 24 25 26 27 28 29 30 31 32 33 34 35 36 37 38 39 40 41 42 43 44 45 46 47 48 49 50
483
ASUS44 KJAN 240110
RWRMS

MISSISSIPPI HOURLY WEATHER ROUNDUP
NATIONAL WEATHER SERVICE JACKSON MS
800 PM CDT WED APR 23 2014

NOTE: "FAIR: INDICATES FEW OR NO CLOUDS BELOW 12,000 FEET WITH NO
SIGNIFICANT WEATHER AND/OR OBSTRUCTIONS TO VISIBILITY.

MSZ001>002-007>008-010>013-018>021-025>028-034>036-240200-
NORTHWEST MISSISSIPPI

CITY           SKY/WX    TMP DP  RH WIND       PRES   REMARKS
CLARKSDALE       N/A     70  45  40 CALM      29.93R
CLEVELAND      FAIR      70  50  48 CALM      29.91S
GREENWOOD      CLEAR     64  50  60 NE3       29.91S
GREENVILLE     CLEAR     68  52  56 NE3       29.90F
GRENADA        FAIR      63  50  63 CALM      29.93R
OLIVE BRANCH   PTCLDY    68  39  34 CALM      29.94R
OXFORD         LGT RAIN  63  45  51 CALM      29.95R
TUNICA         CLEAR     68  41  37 E3        29.94R
$$

MSZ003>006-009-014>017-022>024-029>033-037>039-240200-
NORTHEAST MISSISSIPPI

CITY           SKY/WX    TMP DP  RH WIND       PRES   REMARKS
BELMONT        FAIR      63  45  51 CALM      29.96R
COLUMBUS AFB   CLEAR     66  48  51 NW2       29.93R
CORINTH        FAIR      64  41  42 CALM      29.95R
GOLDN TRIANGLE CLEAR     70  45  40 CALM      29.95R
STARKVILLE     FAIR      61  50  67 CALM      29.94R
TUPELO         CLEAR     66  41  40 CALM      29.93S
$$

MSZ040-058-240200-
CENTRAL MISSISSIPPI

CITY           SKY/WX    TMP DP  RH WIND       PRES   REMARKS
JACKSON INTL   CLEAR     68  52  56 CALM      29.90R
JACKSON HAWKNS CLEAR     72  49  44 MISG      29.91R
MERIDIAN KEY   CLEAR     65  57  75 CALM      29.91R
MERIDIAN NAS   CLEAR     69  46  43 N5        29.92R
RAYMOND        FAIR      63  57  82 CALM      29.91R
VICKSBURG      CLEAR     70  52  52 CALM      29.90R
$$

MSZ059>079-240200-
SOUTH MISSISSIPPI

CITY           SKY/WX    TMP DP  RH WIND       PRES   REMARKS
BROOKHAVEN     FAIR      66  57  72 CALM      29.91S
HATTIESBURG    CLEAR     69  60  73 CALM      29.89S
MCCOMB         CLEAR     69  53  56 CALM      29.89S
NATCHEZ        CLEAR     72  48  43 CALM      29.89S
PINE BELT      CLEAR     68  59  73 CALM      29.91R
$$

MSZ080>082-240200-
COASTAL MISSISSIPPI

CITY           SKY/WX    TMP DP  RH WIND       PRES   REMARKS
BAY ST LOUIS   CLEAR     70  63  78 S5        29.90R
BILOXI         CLEAR     71  67  87 SW7       29.91R
PASCAGOULA     CLEAR     70  66  87 CALM      29.91R
GULFPORT       CLEAR     75  65  70 CALM      29.90R
$$



USA.gov is the U.S. government's official web portal to all federal, state and local government web resources and services.